Year,Month,Day,Hour,Minute,Value (Times are PST for windgust in km/hr)
2015,11,11,00,00,9.60
2015,11,11,00,01,12.90
2015,11,11,00,02,11.30
2015,11,11,00,03,11.30
2015,11,11,00,04,14.50
2015,11,11,00,05,14.50
2015,11,11,00,06,12.90
2015,11,11,00,07,11.30
2015,11,11,00,08,11.30
2015,11,11,00,09,9.60
2015,11,11,00,10,12.90
2015,11,11,00,11,12.90
2015,11,11,00,12,11.30
2015,11,11,00,13,12.90
2015,11,11,00,14,12.90
2015,11,11,00,15,12.90
2015,11,11,00,16,11.30
2015,11,11,00,17,11.30
2015,11,11,00,18,11.30
2015,11,11,00,19,16.10
2015,11,11,00,20,14.50
2015,11,11,00,21,16.10
2015,11,11,00,22,17.70
2015,11,11,00,23,17.70
2015,11,11,00,24,16.10
2015,11,11,00,25,16.10
2015,11,11,00,26,16.10
2015,11,11,00,27,16.10
2015,11,11,00,28,17.70
2015,11,11,00,29,16.10
2015,11,11,00,30,17.70
2015,11,11,00,31,16.10
2015,11,11,00,32,14.50
2015,11,11,00,33,16.10
2015,11,11,00,34,11.30
2015,11,11,00,35,14.50
2015,11,11,00,36,14.50
2015,11,11,00,37,14.50
2015,11,11,00,38,12.90
2015,11,11,00,39,19.30
2015,11,11,00,40,14.50
2015,11,11,00,41,14.50
2015,11,11,00,42,14.50
2015,11,11,00,43,12.90
2015,11,11,00,44,16.10
2015,11,11,00,45,14.50
2015,11,11,00,46,12.90
2015,11,11,00,47,11.30
2015,11,11,00,48,11.30
2015,11,11,00,49,12.90
2015,11,11,00,50,12.90
2015,11,11,00,51,12.90
2015,11,11,00,52,11.30
2015,11,11,00,53,11.30
2015,11,11,00,54,11.30
2015,11,11,00,55,11.30
2015,11,11,00,56,11.30
2015,11,11,00,57,11.30
2015,11,11,00,58,6.40
2015,11,11,00,59,4.80
2015,11,11,01,00,6.40
2015,11,11,01,01,3.20
2015,11,11,01,02,6.40
2015,11,11,01,03,6.40
2015,11,11,01,04,4.80
2015,11,11,01,05,6.40
2015,11,11,01,06,1.60
2015,11,11,01,07,1.60
2015,11,11,01,08,1.60
2015,11,11,01,09,4.80
2015,11,11,01,10,4.80
2015,11,11,01,11,9.60
2015,11,11,01,12,4.80
2015,11,11,01,13,3.20
2015,11,11,01,14,3.20
2015,11,11,01,15,1.60
2015,11,11,01,16,3.20
2015,11,11,01,17,3.20
2015,11,11,01,18,4.80
2015,11,11,01,19,3.20
2015,11,11,01,20,4.80
2015,11,11,01,21,3.20
2015,11,11,01,22,4.80
2015,11,11,01,23,4.80
2015,11,11,01,24,4.80
2015,11,11,01,25,4.80
2015,11,11,01,26,3.20
2015,11,11,01,27,4.80
2015,11,11,01,28,3.20
2015,11,11,01,29,4.80
2015,11,11,01,30,3.20
2015,11,11,01,31,3.20
2015,11,11,01,32,4.80
2015,11,11,01,33,3.20
2015,11,11,01,34,3.20
2015,11,11,01,35,4.80
2015,11,11,01,36,3.20
2015,11,11,01,37,3.20
2015,11,11,01,38,1.60
2015,11,11,01,39,1.60
2015,11,11,01,40,1.60
2015,11,11,01,41,1.60
2015,11,11,01,42,1.60
2015,11,11,01,43,3.20
2015,11,11,01,44,3.20
2015,11,11,01,45,4.80
2015,11,11,01,46,3.20
2015,11,11,01,47,3.20
2015,11,11,01,48,3.20
2015,11,11,01,49,4.80
2015,11,11,01,50,4.80
2015,11,11,01,51,4.80
2015,11,11,01,52,4.80
2015,11,11,01,53,4.80
2015,11,11,01,54,4.80
2015,11,11,01,55,4.80
2015,11,11,01,56,4.80
2015,11,11,01,57,3.20
2015,11,11,01,58,4.80
2015,11,11,01,59,6.40
2015,11,11,02,00,6.40
2015,11,11,02,01,6.40
2015,11,11,02,02,4.80
2015,11,11,02,03,4.80
2015,11,11,02,04,4.80
2015,11,11,02,05,3.20
2015,11,11,02,06,3.20
2015,11,11,02,07,4.80
2015,11,11,02,08,4.80
2015,11,11,02,09,4.80
2015,11,11,02,10,4.80
2015,11,11,02,11,4.80
2015,11,11,02,12,6.40
2015,11,11,02,13,4.80
2015,11,11,02,14,4.80
2015,11,11,02,15,3.20
2015,11,11,02,16,3.20
2015,11,11,02,24,4.80
2015,11,11,02,25,4.80
2015,11,11,02,26,3.20
2015,11,11,02,27,4.80
2015,11,11,02,28,4.80
2015,11,11,02,29,4.80
2015,11,11,02,30,4.80
2015,11,11,02,31,4.80
2015,11,11,02,32,4.80
2015,11,11,02,33,4.80
2015,11,11,02,34,4.80
2015,11,11,02,35,4.80
2015,11,11,02,36,4.80
2015,11,11,02,37,4.80
2015,11,11,02,38,4.80
2015,11,11,02,39,3.20
2015,11,11,02,40,4.80
2015,11,11,02,41,4.80
2015,11,11,02,42,3.20
2015,11,11,02,43,4.80
2015,11,11,02,44,4.80
2015,11,11,02,45,6.40
2015,11,11,02,46,4.80
2015,11,11,02,47,3.20
2015,11,11,02,48,4.80
2015,11,11,02,49,9.60
2015,11,11,02,50,6.40
2015,11,11,02,51,4.80
2015,11,11,02,52,6.40
2015,11,11,02,53,6.40
2015,11,11,02,54,3.20
2015,11,11,02,55,3.20
2015,11,11,02,56,1.60
2015,11,11,03,05,3.20
2015,11,11,03,06,3.20
2015,11,11,03,07,3.20
2015,11,11,03,08,1.60
2015,11,11,03,09,3.20
2015,11,11,03,10,4.80
2015,11,11,03,11,6.40
2015,11,11,03,12,6.40
2015,11,11,03,13,3.20
2015,11,11,03,14,3.20
2015,11,11,03,15,3.20
2015,11,11,03,16,3.20
2015,11,11,03,17,4.80
2015,11,11,03,18,3.20
2015,11,11,03,19,3.20
2015,11,11,03,20,1.60
2015,11,11,03,21,4.80
2015,11,11,03,22,4.80
2015,11,11,03,23,4.80
2015,11,11,03,24,4.80
2015,11,11,03,25,4.80
2015,11,11,03,26,3.20
2015,11,11,03,27,3.20
2015,11,11,03,28,3.20
2015,11,11,03,29,3.20
2015,11,11,03,30,3.20
2015,11,11,03,31,3.20
2015,11,11,03,32,3.20
2015,11,11,03,33,3.20
2015,11,11,03,34,3.20
2015,11,11,03,35,3.20
2015,11,11,03,36,3.20
2015,11,11,03,37,1.60
2015,11,11,03,38,1.60
2015,11,11,03,39,1.60
2015,11,11,03,40,4.80
2015,11,11,03,41,4.80
2015,11,11,03,42,3.20
2015,11,11,03,43,3.20
2015,11,11,03,44,1.60
2015,11,11,03,45,3.20
2015,11,11,03,46,4.80
2015,11,11,03,47,3.20
2015,11,11,03,48,3.20
2015,11,11,03,49,3.20
2015,11,11,03,50,3.20
2015,11,11,03,51,1.60
2015,11,11,03,52,3.20
2015,11,11,03,53,1.60
2015,11,11,03,54,1.60
2015,11,11,03,57,1.60
2015,11,11,03,58,1.60
2015,11,11,03,59,1.60
2015,11,11,04,00,1.60
2015,11,11,04,01,3.20
2015,11,11,04,02,3.20
2015,11,11,04,03,3.20
2015,11,11,04,04,1.60
2015,11,11,04,05,1.60
2015,11,11,04,06,1.60
2015,11,11,04,07,1.60
2015,11,11,04,08,1.60
2015,11,11,04,09,3.20
2015,11,11,04,10,3.20
2015,11,11,04,11,1.60
2015,11,11,04,12,1.60
2015,11,11,04,13,1.60
2015,11,11,04,14,1.60
2015,11,11,04,15,1.60
2015,11,11,04,17,1.60
2015,11,11,04,23,3.20
2015,11,11,04,24,3.20
2015,11,11,04,25,3.20
2015,11,11,04,26,1.60
2015,11,11,04,27,3.20
2015,11,11,04,28,3.20
2015,11,11,04,29,3.20
2015,11,11,04,30,3.20
2015,11,11,04,31,3.20
2015,11,11,04,32,1.60
2015,11,11,04,33,1.60
2015,11,11,04,34,3.20
2015,11,11,04,35,3.20
2015,11,11,04,36,1.60
2015,11,11,04,37,1.60
2015,11,11,04,38,1.60
2015,11,11,04,39,1.60
2015,11,11,04,40,1.60
2015,11,11,04,41,1.60
2015,11,11,04,42,1.60
2015,11,11,04,43,1.60
2015,11,11,04,44,1.60
2015,11,11,04,45,1.60
2015,11,11,04,46,4.80
2015,11,11,04,47,3.20
2015,11,11,04,48,4.80
2015,11,11,04,49,3.20
2015,11,11,04,50,1.60
2015,11,11,04,51,1.60
2015,11,11,04,52,1.60
2015,11,11,04,53,1.60
2015,11,11,04,54,3.20
2015,11,11,04,55,3.20
2015,11,11,04,56,3.20
2015,11,11,04,57,3.20
2015,11,11,04,58,3.20
2015,11,11,04,59,3.20
2015,11,11,05,00,3.20
2015,11,11,05,01,3.20
2015,11,11,05,02,3.20
2015,11,11,05,03,3.20
2015,11,11,05,04,3.20
2015,11,11,05,05,1.60
2015,11,11,05,14,1.60
2015,11,11,05,15,3.20
2015,11,11,05,16,3.20
2015,11,11,05,17,3.20
2015,11,11,05,18,1.60
2015,11,11,05,19,1.60
2015,11,11,05,20,11.30
2015,11,11,05,21,9.60
2015,11,11,05,22,6.40
2015,11,11,05,23,6.40
2015,11,11,05,24,8.10
2015,11,11,05,25,6.40
2015,11,11,05,26,6.40
2015,11,11,05,27,4.80
2015,11,11,05,28,6.40
2015,11,11,05,29,4.80
2015,11,11,05,30,3.20
2015,11,11,05,31,4.80
2015,11,11,05,32,4.80
2015,11,11,05,33,3.20
2015,11,11,05,34,3.20
2015,11,11,05,35,3.20
2015,11,11,05,36,3.20
2015,11,11,05,37,3.20
2015,11,11,05,38,3.20
2015,11,11,05,39,3.20
2015,11,11,05,40,3.20
2015,11,11,05,41,3.20
2015,11,11,05,42,3.20
2015,11,11,05,43,3.20
2015,11,11,05,44,4.80
2015,11,11,05,45,4.80
2015,11,11,05,46,3.20
2015,11,11,05,47,3.20
2015,11,11,05,48,4.80
2015,11,11,05,49,3.20
2015,11,11,05,50,3.20
2015,11,11,05,51,4.80
2015,11,11,05,52,3.20
2015,11,11,05,53,3.20
2015,11,11,05,54,3.20
2015,11,11,05,55,3.20
2015,11,11,05,56,3.20
2015,11,11,05,57,1.60
2015,11,11,05,58,1.60
2015,11,11,05,59,1.60
2015,11,11,06,00,3.20
2015,11,11,06,01,3.20
2015,11,11,06,02,3.20
2015,11,11,06,03,1.60
2015,11,11,06,04,1.60
2015,11,11,06,06,1.60
2015,11,11,06,07,4.80
2015,11,11,06,08,4.80
2015,11,11,06,09,4.80
2015,11,11,06,10,4.80
2015,11,11,06,11,3.20
2015,11,11,06,12,3.20
2015,11,11,06,13,1.60
2015,11,11,06,14,3.20
2015,11,11,06,15,3.20
2015,11,11,06,16,4.80
2015,11,11,06,17,4.80
2015,11,11,06,18,4.80
2015,11,11,06,19,4.80
2015,11,11,06,20,3.20
2015,11,11,06,21,3.20
2015,11,11,06,22,4.80
2015,11,11,06,23,3.20
2015,11,11,06,24,4.80
2015,11,11,06,25,3.20
2015,11,11,06,26,3.20
2015,11,11,06,27,3.20
2015,11,11,06,28,3.20
2015,11,11,06,29,3.20
2015,11,11,06,30,3.20
2015,11,11,06,31,3.20
2015,11,11,06,32,3.20
2015,11,11,06,33,3.20
2015,11,11,06,34,4.80
2015,11,11,06,35,4.80
2015,11,11,06,36,4.80
2015,11,11,06,37,3.20
2015,11,11,06,38,1.60
2015,11,11,06,39,3.20
2015,11,11,06,40,3.20
2015,11,11,06,41,3.20
2015,11,11,06,42,4.80
2015,11,11,06,43,3.20
2015,11,11,06,44,3.20
2015,11,11,06,45,4.80
2015,11,11,06,46,3.20
2015,11,11,06,47,1.60
2015,11,11,06,48,3.20
2015,11,11,06,49,1.60
2015,11,11,06,50,1.60
2015,11,11,06,51,4.80
2015,11,11,06,52,3.20
2015,11,11,06,53,3.20
2015,11,11,06,54,1.60
2015,11,11,06,55,3.20
2015,11,11,06,56,3.20
2015,11,11,06,57,1.60
2015,11,11,06,58,3.20
2015,11,11,06,59,4.80
2015,11,11,07,00,4.80
2015,11,11,07,01,3.20
2015,11,11,07,02,3.20
2015,11,11,07,03,3.20
2015,11,11,07,04,3.20
2015,11,11,07,05,3.20
2015,11,11,07,06,3.20
2015,11,11,07,07,3.20
2015,11,11,07,08,3.20
2015,11,11,07,09,1.60
2015,11,11,07,10,1.60
2015,11,11,07,11,1.60
2015,11,11,07,12,1.60
2015,11,11,07,13,3.20
2015,11,11,07,14,3.20
2015,11,11,07,15,4.80
2015,11,11,07,16,1.60
2015,11,11,07,17,1.60
2015,11,11,07,18,1.60
2015,11,11,07,19,1.60
2015,11,11,07,20,1.60
2015,11,11,07,21,3.20
2015,11,11,07,22,3.20
2015,11,11,07,23,3.20
2015,11,11,07,24,3.20
2015,11,11,07,25,3.20
2015,11,11,07,26,3.20
2015,11,11,07,27,3.20
2015,11,11,07,28,3.20
2015,11,11,07,29,4.80
2015,11,11,07,30,4.80
2015,11,11,07,31,4.80
2015,11,11,07,32,1.60
2015,11,11,07,33,4.80
2015,11,11,07,34,3.20
2015,11,11,07,35,3.20
2015,11,11,07,36,3.20
2015,11,11,07,37,3.20
2015,11,11,07,38,1.60
2015,11,11,07,39,3.20
2015,11,11,07,40,4.80
2015,11,11,07,41,1.60
2015,11,11,07,42,3.20
2015,11,11,07,43,3.20
2015,11,11,07,44,4.80
2015,11,11,07,45,4.80
2015,11,11,07,46,4.80
2015,11,11,07,47,4.80
2015,11,11,07,48,3.20
2015,11,11,07,49,4.80
2015,11,11,07,50,4.80
2015,11,11,07,51,4.80
2015,11,11,07,52,4.80
2015,11,11,07,53,4.80
2015,11,11,07,54,4.80
2015,11,11,07,55,4.80
2015,11,11,07,56,6.40
2015,11,11,07,57,6.40
2015,11,11,07,58,4.80
2015,11,11,07,59,3.20
2015,11,11,08,00,3.20
2015,11,11,08,01,4.80
2015,11,11,08,02,4.80
2015,11,11,08,03,4.80
2015,11,11,08,04,4.80
2015,11,11,08,05,4.80
2015,11,11,08,06,3.20
2015,11,11,08,07,4.80
2015,11,11,08,08,4.80
2015,11,11,08,09,6.40
2015,11,11,08,10,6.40
2015,11,11,08,11,6.40
2015,11,11,08,12,4.80
2015,11,11,08,13,4.80
2015,11,11,08,14,4.80
2015,11,11,08,15,3.20
2015,11,11,08,16,1.60
2015,11,11,08,17,1.60
2015,11,11,08,18,4.80
2015,11,11,08,19,4.80
2015,11,11,08,20,4.80
2015,11,11,08,21,3.20
2015,11,11,08,22,3.20
2015,11,11,08,23,4.80
2015,11,11,08,24,4.80
2015,11,11,08,25,4.80
2015,11,11,08,26,3.20
2015,11,11,08,27,4.80
2015,11,11,08,28,4.80
2015,11,11,08,29,6.40
2015,11,11,08,30,8.10
2015,11,11,08,31,6.40
2015,11,11,08,32,6.40
2015,11,11,08,33,6.40
2015,11,11,08,34,6.40
2015,11,11,08,35,4.80
2015,11,11,08,36,3.20
2015,11,11,08,37,3.20
2015,11,11,08,38,3.20
2015,11,11,08,39,3.20
2015,11,11,08,40,3.20
2015,11,11,08,41,3.20
2015,11,11,08,42,3.20
2015,11,11,08,43,4.80
2015,11,11,08,44,4.80
2015,11,11,08,45,3.20
2015,11,11,08,46,3.20
2015,11,11,08,47,4.80
2015,11,11,08,48,3.20
2015,11,11,08,49,3.20
2015,11,11,08,50,3.20
2015,11,11,08,51,3.20
2015,11,11,08,52,1.60
2015,11,11,08,53,1.60
2015,11,11,08,54,3.20
2015,11,11,08,55,1.60
2015,11,11,08,56,1.60
2015,11,11,08,57,1.60
2015,11,11,08,58,1.60
2015,11,11,08,59,1.60
2015,11,11,09,00,1.60
2015,11,11,09,01,1.60
2015,11,11,09,02,3.20
2015,11,11,09,03,3.20
2015,11,11,09,04,1.60
2015,11,11,09,05,1.60
2015,11,11,09,06,1.60
2015,11,11,09,07,1.60
2015,11,11,09,08,4.80
2015,11,11,09,09,3.20
2015,11,11,09,10,3.20
2015,11,11,09,11,4.80
2015,11,11,09,12,3.20
2015,11,11,09,13,3.20
2015,11,11,09,14,3.20
2015,11,11,09,15,3.20
2015,11,11,09,16,3.20
2015,11,11,09,17,3.20
2015,11,11,09,18,3.20
2015,11,11,09,19,3.20
2015,11,11,09,20,1.60
2015,11,11,09,21,3.20
2015,11,11,09,22,3.20
2015,11,11,09,23,3.20
2015,11,11,09,24,1.60
2015,11,11,09,25,1.60
2015,11,11,09,26,1.60
2015,11,11,09,27,1.60
2015,11,11,09,30,1.60
2015,11,11,09,31,1.60
2015,11,11,09,39,1.60
2015,11,11,09,43,1.60
2015,11,11,09,44,1.60
2015,11,11,09,45,3.20
2015,11,11,09,46,1.60
2015,11,11,09,49,1.60
2015,11,11,09,50,1.60
2015,11,11,09,51,1.60
2015,11,11,09,52,3.20
2015,11,11,09,53,3.20
2015,11,11,09,54,1.60
2015,11,11,09,55,1.60
2015,11,11,09,56,1.60
2015,11,11,09,57,1.60
2015,11,11,09,58,3.20
2015,11,11,09,59,1.60
2015,11,11,10,00,1.60
2015,11,11,10,01,1.60
2015,11,11,10,02,1.60
2015,11,11,10,03,1.60
2015,11,11,10,04,3.20
2015,11,11,10,05,1.60
2015,11,11,10,06,1.60
2015,11,11,10,07,1.60
2015,11,11,10,08,1.60
2015,11,11,10,09,1.60
2015,11,11,10,10,1.60
2015,11,11,10,13,1.60
2015,11,11,10,14,1.60
2015,11,11,10,15,1.60
2015,11,11,10,16,3.20
2015,11,11,10,17,3.20
2015,11,11,10,18,3.20
2015,11,11,10,19,3.20
2015,11,11,10,20,3.20
2015,11,11,10,21,3.20
2015,11,11,10,22,3.20
2015,11,11,10,23,1.60
2015,11,11,10,24,3.20
2015,11,11,10,25,3.20
2015,11,11,10,26,3.20
2015,11,11,10,27,4.80
2015,11,11,10,28,6.40
2015,11,11,10,29,4.80
2015,11,11,10,30,3.20
2015,11,11,10,31,1.60
2015,11,11,10,32,1.60
2015,11,11,10,33,3.20
2015,11,11,10,34,4.80
2015,11,11,10,35,3.20
2015,11,11,10,36,3.20
2015,11,11,10,37,3.20
2015,11,11,10,38,1.60
2015,11,11,10,39,1.60
2015,11,11,10,40,3.20
2015,11,11,10,41,3.20
2015,11,11,10,42,3.20
2015,11,11,10,43,1.60
2015,11,11,10,44,1.60
2015,11,11,10,45,1.60
2015,11,11,10,46,1.60
2015,11,11,10,47,1.60
2015,11,11,10,48,3.20
2015,11,11,10,49,4.80
2015,11,11,10,50,3.20
2015,11,11,10,51,3.20
2015,11,11,10,52,1.60
2015,11,11,10,53,3.20
2015,11,11,10,54,1.60
2015,11,11,10,55,3.20
2015,11,11,10,56,3.20
2015,11,11,10,57,4.80
2015,11,11,10,58,3.20
2015,11,11,10,59,4.80
2015,11,11,11,00,4.80
2015,11,11,11,01,4.80
2015,11,11,11,02,4.80
2015,11,11,11,03,4.80
2015,11,11,11,04,6.40
2015,11,11,11,05,4.80
2015,11,11,11,06,6.40
2015,11,11,11,07,6.40
2015,11,11,11,08,6.40
2015,11,11,11,09,4.80
2015,11,11,11,10,4.80
2015,11,11,11,11,4.80
2015,11,11,11,12,4.80
2015,11,11,11,16,3.20
2015,11,11,11,17,3.20
2015,11,11,11,18,3.20
2015,11,11,11,19,3.20
2015,11,11,11,20,4.80
2015,11,11,11,21,4.80
2015,11,11,11,22,4.80
2015,11,11,11,23,6.40
2015,11,11,11,24,4.80
2015,11,11,11,25,1.60
2015,11,11,11,26,3.20
2015,11,11,11,27,4.80
2015,11,11,11,28,3.20
2015,11,11,11,29,1.60
2015,11,11,11,30,3.20
2015,11,11,11,31,4.80
2015,11,11,11,32,3.20
2015,11,11,11,33,3.20
2015,11,11,11,34,3.20
2015,11,11,11,35,3.20
2015,11,11,11,36,3.20
2015,11,11,11,37,1.60
2015,11,11,11,38,3.20
2015,11,11,11,39,3.20
2015,11,11,11,40,1.60
2015,11,11,11,42,4.80
2015,11,11,11,43,3.20
2015,11,11,11,44,4.80
2015,11,11,11,45,4.80
2015,11,11,11,46,4.80
2015,11,11,11,47,3.20
2015,11,11,11,48,1.60
2015,11,11,11,49,3.20
2015,11,11,11,50,1.60
2015,11,11,11,51,3.20
2015,11,11,11,52,3.20
2015,11,11,11,53,6.40
2015,11,11,11,54,6.40
2015,11,11,11,55,8.10
2015,11,11,11,56,6.40
2015,11,11,11,57,6.40
2015,11,11,11,58,9.60
2015,11,11,11,59,6.40
2015,11,11,12,00,6.40
2015,11,11,12,01,4.80
2015,11,11,12,02,4.80
2015,11,11,12,03,9.60
2015,11,11,12,04,9.60
2015,11,11,12,05,6.40
2015,11,11,12,06,4.80
2015,11,11,12,07,8.10
2015,11,11,12,08,6.40
2015,11,11,12,09,9.60
2015,11,11,12,10,6.40
2015,11,11,12,11,8.10
2015,11,11,12,12,6.40
2015,11,11,12,13,9.60
2015,11,11,12,14,9.60
2015,11,11,12,15,4.80
2015,11,11,12,16,6.40
2015,11,11,12,17,6.40
2015,11,11,12,18,4.80
2015,11,11,12,19,4.80
2015,11,11,12,20,4.80
2015,11,11,12,21,4.80
2015,11,11,12,22,6.40
2015,11,11,12,23,3.20
2015,11,11,12,24,4.80
2015,11,11,12,25,4.80
2015,11,11,12,26,4.80
2015,11,11,12,27,4.80
2015,11,11,12,28,4.80
2015,11,11,12,29,4.80
2015,11,11,12,30,3.20
2015,11,11,12,31,4.80
2015,11,11,12,32,4.80
2015,11,11,12,33,3.20
2015,11,11,12,34,4.80
2015,11,11,12,35,4.80
2015,11,11,12,36,4.80
2015,11,11,12,37,4.80
2015,11,11,12,38,4.80
2015,11,11,12,39,8.10
2015,11,11,12,40,4.80
2015,11,11,12,41,9.60
2015,11,11,12,42,6.40
2015,11,11,12,43,6.40
2015,11,11,12,44,6.40
2015,11,11,12,45,4.80
2015,11,11,12,46,6.40
2015,11,11,12,47,9.60
2015,11,11,12,48,9.60
2015,11,11,12,49,9.60
2015,11,11,12,50,6.40
2015,11,11,12,51,11.30
2015,11,11,12,52,6.40
2015,11,11,12,53,6.40
2015,11,11,12,54,9.60
2015,11,11,12,55,6.40
2015,11,11,12,56,6.40
2015,11,11,12,57,6.40
2015,11,11,12,58,9.60
2015,11,11,12,59,9.60
2015,11,11,13,00,6.40
2015,11,11,13,01,6.40
2015,11,11,13,02,6.40
2015,11,11,13,03,6.40
2015,11,11,13,04,6.40
2015,11,11,13,05,6.40
2015,11,11,13,06,6.40
2015,11,11,13,07,6.40
2015,11,11,13,08,8.10
2015,11,11,13,09,6.40
2015,11,11,13,10,9.60
2015,11,11,13,11,11.30
2015,11,11,13,12,9.60
2015,11,11,13,13,9.60
2015,11,11,13,14,9.60
2015,11,11,13,15,9.60
2015,11,11,13,16,11.30
2015,11,11,13,17,8.10
2015,11,11,13,18,11.30
2015,11,11,13,19,9.60
2015,11,11,13,20,9.60
2015,11,11,13,21,11.30
2015,11,11,13,22,9.60
2015,11,11,13,23,11.30
2015,11,11,13,24,6.40
2015,11,11,13,25,9.60
2015,11,11,13,26,6.40
2015,11,11,13,27,8.10
2015,11,11,13,28,9.60
2015,11,11,13,29,9.60
2015,11,11,13,30,6.40
2015,11,11,13,31,6.40
2015,11,11,13,32,6.40
2015,11,11,13,33,11.30
2015,11,11,13,34,4.80
2015,11,11,13,35,9.60
2015,11,11,13,36,4.80
2015,11,11,13,37,9.60
2015,11,11,13,38,9.60
2015,11,11,13,39,11.30
2015,11,11,13,40,11.30
2015,11,11,13,41,11.30
2015,11,11,13,42,9.60
2015,11,11,13,43,9.60
2015,11,11,13,44,9.60
2015,11,11,13,45,6.40
2015,11,11,13,46,6.40
2015,11,11,13,47,9.60
2015,11,11,13,48,6.40
2015,11,11,13,49,9.60
2015,11,11,13,50,6.40
2015,11,11,13,51,4.80
2015,11,11,13,52,6.40
2015,11,11,13,53,6.40
2015,11,11,13,54,9.60
2015,11,11,13,55,6.40
2015,11,11,13,56,6.40
2015,11,11,13,57,9.60
2015,11,11,13,58,9.60
2015,11,11,13,59,11.30
2015,11,11,14,00,6.40
2015,11,11,14,01,6.40
2015,11,11,14,02,4.80
2015,11,11,14,03,4.80
2015,11,11,14,04,4.80
2015,11,11,14,05,9.60
2015,11,11,14,06,6.40
2015,11,11,14,07,6.40
2015,11,11,14,08,6.40
2015,11,11,14,09,4.80
2015,11,11,14,10,6.40
2015,11,11,14,11,6.40
2015,11,11,14,12,4.80
2015,11,11,14,13,6.40
2015,11,11,14,14,4.80
2015,11,11,14,15,4.80
2015,11,11,14,16,4.80
2015,11,11,14,17,4.80
2015,11,11,14,18,3.20
2015,11,11,14,19,3.20
2015,11,11,14,20,3.20
2015,11,11,14,21,3.20
2015,11,11,14,22,1.60
2015,11,11,14,23,3.20
2015,11,11,14,24,3.20
2015,11,11,14,25,4.80
2015,11,11,14,26,4.80
2015,11,11,14,27,3.20
2015,11,11,14,28,3.20
2015,11,11,14,29,3.20
2015,11,11,14,30,4.80
2015,11,11,14,31,4.80
2015,11,11,14,32,4.80
2015,11,11,14,33,4.80
2015,11,11,14,34,4.80
2015,11,11,14,35,6.40
2015,11,11,14,36,6.40
2015,11,11,14,37,4.80
2015,11,11,14,38,4.80
2015,11,11,14,39,3.20
2015,11,11,14,40,4.80
2015,11,11,14,41,6.40
2015,11,11,14,42,6.40
2015,11,11,14,43,6.40
2015,11,11,14,44,6.40
2015,11,11,14,45,6.40
2015,11,11,14,46,6.40
2015,11,11,14,47,6.40
2015,11,11,14,48,6.40
2015,11,11,14,49,4.80
2015,11,11,14,50,3.20
2015,11,11,14,51,4.80
2015,11,11,14,52,3.20
2015,11,11,14,53,3.20
2015,11,11,14,54,3.20
2015,11,11,14,55,3.20
2015,11,11,14,56,4.80
2015,11,11,14,57,6.40
2015,11,11,14,58,3.20
2015,11,11,14,59,3.20
2015,11,11,15,00,1.60
2015,11,11,15,01,4.80
2015,11,11,15,02,4.80
2015,11,11,15,03,4.80
2015,11,11,15,04,6.40
2015,11,11,15,05,6.40
2015,11,11,15,06,6.40
2015,11,11,15,07,6.40
2015,11,11,15,08,6.40
2015,11,11,15,09,3.20
2015,11,11,15,10,1.60
2015,11,11,15,11,4.80
2015,11,11,15,12,4.80
2015,11,11,15,13,3.20
2015,11,11,15,14,8.10
2015,11,11,15,15,4.80
2015,11,11,15,16,4.80
2015,11,11,15,17,3.20
2015,11,11,15,18,4.80
2015,11,11,15,19,4.80
2015,11,11,15,20,4.80
2015,11,11,15,21,6.40
2015,11,11,15,22,4.80
2015,11,11,15,23,1.60
2015,11,11,15,24,3.20
2015,11,11,15,25,3.20
2015,11,11,15,26,4.80
2015,11,11,15,27,1.60
2015,11,11,15,28,3.20
2015,11,11,15,29,4.80
2015,11,11,15,30,4.80
2015,11,11,15,31,3.20
2015,11,11,15,32,4.80
2015,11,11,15,33,4.80
2015,11,11,15,34,3.20
2015,11,11,15,35,3.20
2015,11,11,15,36,4.80
2015,11,11,15,37,1.60
2015,11,11,15,38,1.60
2015,11,11,15,39,3.20
2015,11,11,15,40,1.60
2015,11,11,15,41,1.60
2015,11,11,15,42,1.60
2015,11,11,15,43,1.60
2015,11,11,15,44,1.60
2015,11,11,15,45,1.60
2015,11,11,15,47,1.60
2015,11,11,15,48,1.60
2015,11,11,15,55,1.60
2015,11,11,16,01,1.60
2015,11,11,16,08,1.60
2015,11,11,16,09,3.20
2015,11,11,16,10,1.60
2015,11,11,16,11,3.20
2015,11,11,17,01,1.60
2015,11,11,17,02,1.60
2015,11,11,17,03,1.60
2015,11,11,17,04,1.60
2015,11,11,17,05,1.60
2015,11,11,17,06,1.60
2015,11,11,17,07,1.60
2015,11,11,17,08,1.60
2015,11,11,17,23,4.80
2015,11,11,17,24,4.80
2015,11,11,17,25,4.80
2015,11,11,17,26,4.80
2015,11,11,17,27,3.20
2015,11,11,17,28,3.20
2015,11,11,17,29,3.20
2015,11,11,17,30,3.20
2015,11,11,17,31,3.20
2015,11,11,17,32,3.20
2015,11,11,17,33,1.60
2015,11,11,17,34,1.60
2015,11,11,17,35,3.20
2015,11,11,17,36,1.60
2015,11,11,17,37,1.60
2015,11,11,17,38,3.20
2015,11,11,17,39,3.20
2015,11,11,17,40,3.20
2015,11,11,17,41,3.20
2015,11,11,17,42,3.20
2015,11,11,17,43,3.20
2015,11,11,17,44,3.20
2015,11,11,17,45,4.80
2015,11,11,17,46,3.20
2015,11,11,17,47,3.20
2015,11,11,17,48,4.80
2015,11,11,17,49,4.80
2015,11,11,17,50,4.80
2015,11,11,17,51,4.80
2015,11,11,17,52,4.80
2015,11,11,17,53,3.20
2015,11,11,17,54,4.80
2015,11,11,17,55,4.80
2015,11,11,17,56,4.80
2015,11,11,17,57,4.80
2015,11,11,17,58,4.80
2015,11,11,17,59,4.80
2015,11,11,18,00,4.80
2015,11,11,18,01,4.80
2015,11,11,18,02,3.20
2015,11,11,18,03,1.60
2015,11,11,18,04,1.60
2015,11,11,18,05,1.60
2015,11,11,18,06,1.60
2015,11,11,18,07,1.60
2015,11,11,18,08,3.20
2015,11,11,18,09,3.20
2015,11,11,18,10,3.20
2015,11,11,18,11,3.20
2015,11,11,18,12,3.20
2015,11,11,18,13,3.20
2015,11,11,18,14,1.60
2015,11,11,18,15,3.20
2015,11,11,18,16,3.20
2015,11,11,18,17,1.60
2015,11,11,18,18,1.60
2015,11,11,18,19,1.60
2015,11,11,18,20,1.60
2015,11,11,18,21,1.60
2015,11,11,18,24,3.20
2015,11,11,18,25,3.20
2015,11,11,18,26,3.20
2015,11,11,18,27,3.20
2015,11,11,18,28,3.20
2015,11,11,18,29,3.20
2015,11,11,18,30,3.20
2015,11,11,18,31,3.20
2015,11,11,18,32,3.20
2015,11,11,18,33,3.20
2015,11,11,18,34,3.20
2015,11,11,18,35,3.20
2015,11,11,18,36,3.20
2015,11,11,18,37,3.20
2015,11,11,18,38,3.20
2015,11,11,18,39,1.60
2015,11,11,18,40,1.60
2015,11,11,18,41,1.60
2015,11,11,18,42,1.60
2015,11,11,18,43,3.20
2015,11,11,18,44,3.20
2015,11,11,18,45,1.60
2015,11,11,18,46,1.60
2015,11,11,18,47,3.20
2015,11,11,18,48,1.60
2015,11,11,18,49,3.20
2015,11,11,18,50,3.20
2015,11,11,18,51,3.20
2015,11,11,18,52,1.60
2015,11,11,18,53,1.60
2015,11,11,18,54,1.60
2015,11,11,18,55,1.60
2015,11,11,18,56,1.60
2015,11,11,18,57,1.60
2015,11,11,18,58,1.60
2015,11,11,18,59,3.20
2015,11,11,19,00,1.60
2015,11,11,19,01,1.60
2015,11,11,19,02,3.20
2015,11,11,19,03,3.20
2015,11,11,19,04,3.20
2015,11,11,19,05,3.20
2015,11,11,19,06,3.20
2015,11,11,19,07,1.60
2015,11,11,19,08,3.20
2015,11,11,19,09,3.20
2015,11,11,19,10,3.20
2015,11,11,19,11,1.60
2015,11,11,19,12,1.60
2015,11,11,19,13,1.60
2015,11,11,19,14,1.60
2015,11,11,19,15,1.60
2015,11,11,19,16,1.60
2015,11,11,19,17,1.60
2015,11,11,19,18,1.60
2015,11,11,19,19,1.60
2015,11,11,19,20,1.60
2015,11,11,19,21,1.60
2015,11,11,19,22,3.20
2015,11,11,19,23,1.60
2015,11,11,19,24,1.60
2015,11,11,19,25,1.60
2015,11,11,19,26,1.60
2015,11,11,19,27,3.20
2015,11,11,19,28,3.20
2015,11,11,19,29,3.20
2015,11,11,19,30,3.20
2015,11,11,19,31,3.20
2015,11,11,19,32,3.20
2015,11,11,19,33,3.20
2015,11,11,19,34,3.20
2015,11,11,19,35,3.20
2015,11,11,19,36,3.20
2015,11,11,19,37,3.20
2015,11,11,19,38,3.20
2015,11,11,19,39,4.80
2015,11,11,19,40,4.80
2015,11,11,19,41,4.80
2015,11,11,19,42,4.80
2015,11,11,19,43,3.20
2015,11,11,19,44,3.20
2015,11,11,19,45,3.20
2015,11,11,19,46,3.20
2015,11,11,19,47,3.20
2015,11,11,19,48,4.80
2015,11,11,19,49,4.80
2015,11,11,19,50,4.80
2015,11,11,19,51,4.80
2015,11,11,19,52,4.80
2015,11,11,19,53,4.80
2015,11,11,19,54,4.80
2015,11,11,19,55,4.80
2015,11,11,19,56,4.80
2015,11,11,19,57,4.80
2015,11,11,19,58,3.20
2015,11,11,19,59,3.20
2015,11,11,20,00,3.20
2015,11,11,20,01,4.80
2015,11,11,20,02,4.80
2015,11,11,20,03,4.80
2015,11,11,20,04,4.80
2015,11,11,20,05,4.80
2015,11,11,20,06,4.80
2015,11,11,20,07,4.80
2015,11,11,20,08,4.80
2015,11,11,20,09,4.80
2015,11,11,20,10,4.80
2015,11,11,20,11,3.20
2015,11,11,20,12,3.20
2015,11,11,20,13,3.20
2015,11,11,20,14,4.80
2015,11,11,20,15,3.20
2015,11,11,20,16,4.80
2015,11,11,20,17,3.20
2015,11,11,20,18,3.20